Location: *
(49.4547°N, 7.9131°E)
Time: 05:36:47
(UTC+00:00)

CZ-4 R/B - Pass Details

Date: 22 September 2019
Orbit: 531 x 599 km, 97.8° (Epoch: 23 October)

Event Time Altitude Azimuth Distance (km) Brightness Sun altitude
Rises 18:08:39 0° 184° (S) 2,685 4.8 -7.5°
Reaches altitude 10° 18:10:51 10° 193° (SSW) 1,807 4.0 -7.9°
Maximum altitude 18:14:30 38° 263° (W) 850 3.0 -8.5°
Drops below altitude 10° 18:18:16 10° 332° (NNW) 1,857 4.6 -9.1°
Sets 18:20:33 0° 340° (NNW) 2,770 5.4 -9.4°
